Theta_e
316 316 316 317 317 317 317 317 318 319 320 322 322 323 323 323 322 322 314 320 323 332 325 316 317 317 319 316 316 315 307 305 307 309 312 315 315 318 316 314 314 314 318 333 346
315 315 315 315 316 317 316 316 317 318 319 320 322 322 322 323 318 313 325 333 334 332 314 314 314 314 313 313 314 311 307 308 312 313 314 314 316 313 314 312 311 315 328 337 344
314 315 315 315 315 316 316 316 316 317 318 320 321 321 322 323 312 311 332 335 334 327 313 314 315 313 311 313 312 312 308 311 311 314 315 313 315 315 314 311 315 317 323 327 334
314 314 314 314 314 314 314 315 316 317 318 318 320 321 322 320 301 315 335 335 333 316 313 313 313 310 309 308 312 307 311 310 311 311 312 313 314 311 314 314 317 322 324 325 327
313 313 313 314 313 314 314 315 315 316 317 317 319 321 320 309 309 319 335 331 317 315 313 310 310 310 307 309 310 308 309 310 309 310 313 314 311 312 312 312 316 323 322 320 321
314 314 314 314 314 314 315 315 315 315 316 317 320 321 314 303 317 320 316 317 315 314 311 311 310 311 309 308 307 310 309 309 309 310 310 310 310 309 312 313 315 317 317 317 318
313 313 313 313 314 314 315 315 315 315 317 318 321 320 309 307 317 319 315 314 315 313 310 311 312 309 309 306 309 308 305 307 308 309 308 310 307 307 312 313 312 313 315 316 318
312 312 312 313 314 314 315 315 315 317 318 320 322 316 305 312 317 315 314 313 315 315 313 313 313 310 308 309 306 305 306 302 308 308 307 308 304 310 312 311 310 312 313 314 316
312 311 311 312 313 314 315 314 318 318 319 321 317 312 304 312 310 315 316 310 313 313 313 311 311 308 306 303 302 303 300 301 304 308 307 306 305 311 313 311 311 312 312 313 315
311 311 311 312 312 313 313 314 318 320 320 318 314 307 309 305 311 314 317 314 310 310 309 309 308 303 303 302 296 298 299 301 302 305 306 304 305 309 309 310 310 311 312 313 314
311 310 310 311 312 312 316 316 313 312 314 308 308 307 306 311 314 311 315 312 310 308 303 306 302 299 301 303 303 301 301 300 303 305 304 303 304 306 309 309 309 311 312 312 314
311 310 310 310 311 312 317 312 309 310 305 311 311 310 312 312 306 309 315 307 306 302 304 302 298 304 303 302 300 300 299 300 303 304 303 304 303 307 309 309 310 310 311 312 314
309 309 310 310 311 314 313 307 312 313 306 306 308 307 308 310 306 307 311 309 304 302 302 300 302 303 302 301 300 300 299 299 300 303 304 303 301 304 308 310 311 311 313 313 314
308 309 309 308 312 312 310 310 314 315 301 301 306 307 309 309 304 312 312 309 304 301 302 301 305 301 301 300 302 299 303 301 301 299 295 304 294 303 307 308 310 311 312 312 314
308 308 308 308 310 309 306 311 315 313 289 302 304 312 309 305 306 306 312 307 302 302 302 300 300 300 299 301 302 299 303 302 302 300 300 300 296 301 307 304 307 310 312 314 316
307 308 307 308 311 308 308 313 314 298 287 298 303 302 303 305 304 306 306 309 308 303 303 303 305 303 302 302 302 303 301 301 302 301 294 299 298 299 303 305 307 310 311 313 314
306 307 306 309 302 308 309 312 297 290 298 297 298 301 301 300 301 302 302 301 299 296 297 301 301 304 304 300 303 302 300 294 292 292 291 300 298 300 305 306 307 309 311 315 317
305 304 306 307 309 308 313 303 291 293 294 300 298 299 297 300 300 301 301 299 303 302 298 296 294 301 304 301 300 300 301 295 288 290 294 299 293 299 307 309 310 313 313 315 315
303 307 307 307 309 309 307 295 294 295 297 296 297 295 295 298 298 299 300 300 301 302 297 296 296 303 303 304 304 300 297 302 296 298 293 297 300 304 308 309 310 310 312 314 315
303 303 304 308 310 308 300 295 296 297 296 297 292 295 292 295 294 296 298 300 299 302 304 301 294 301 302 303 303 301 304 295 296 288 287 293 295 297 302 305 308 309 311 315 316
304 300 303 308 310 302 294 295 294 297 296 294 294 294 295 293 294 294 294 298 299 301 304 303 299 298 301 299 298 299 298 299 300 297 290 289 294 306 304 307 308 310 311 314 315
301 297 304 307 299 299 294 292 291 294 296 293 295 294 293 294 293 293 293 296 297 300 297 301 300 295 297 303 303 302 301 301 297 293 296 295 294 307 307 308 310 310 312 315 316
296 296 304 304 290 290 292 290 290 291 291 290 291 292 293 291 288 292 293 296 295 296 296 298 296 291 293 299 302 299 301 301 302 301 296 294 295 307 308 308 310 310 313 315 317
297 292 295 297 294 290 288 288 287 291 289 291 290 291 290 289 292 289 290 293 293 294 295 296 295 293 288 292 297 295 297 299 298 295 295 296 298 303 306 307 309 311 313 315 316
295 290 291 287 289 289 290 288 286 286 290 291 288 288 286 284 287 287 290 291 293 294 294 294 288 292 293 294 294 293 293 294 294 296 294 298 298 303 306 307 309 311 312 313 314
292 290 292 291 290 289 287 287 285 286 287 286 286 287 287 284 286 284 287 288 287 291 290 294 287 290 288 291 291 289 291 293 293 295 295 296 297 305 308 309 308 309 309 310 312
297 297 292 288 288 287 286 286 286 288 288 289 288 287 285 287 290 291 291 291 290 288 287 288 287 286 283 289 287 284 290 292 292 294 294 291 297 303 303 305 307 309 310 310 312
Wind_Speed
22 21 20 19 18 17 18 16 16 15 13 12 12 11 10 9 9 9 12 2 3 10 5 7 9 10 9 11 9 6 10 14 19 18 10 14 15 8 4 12 4 5 5 15 15
22 22 21 20 19 17 18 18 17 15 14 12 11 10 8 7 12 12 5 8 9 10 8 12 13 12 13 13 8 11 13 16 7 8 10 15 16 14 12 13 9 11 14 15 15
23 23 22 22 21 19 18 18 18 16 14 12 10 9 8 9 10 5 9 9 8 9 5 6 8 13 16 12 12 14 14 5 5 9 10 16 13 12 14 15 14 18 19 17 15
24 24 23 23 22 21 20 19 18 16 14 13 10 8 8 8 3 6 8 7 7 6 7 7 12 14 15 14 12 11 14 6 0 8 11 16 15 12 13 4 11 16 18 17 16
25 25 25 24 23 22 20 19 18 16 14 11 10 7 7 9 10 9 9 8 9 7 10 11 13 14 15 15 10 15 5 6 4 8 11 10 13 11 11 5 11 17 17 17 14
26 26 25 24 23 21 19 17 15 15 13 10 8 7 9 13 6 6 10 10 7 8 5 8 8 7 10 11 16 9 6 7 6 10 9 15 8 6 11 9 14 18 18 17 16
26 27 26 26 24 22 19 16 14 14 11 9 6 6 9 7 2 8 11 8 4 3 4 2 0 7 4 8 4 6 13 10 10 11 7 9 13 12 9 12 15 18 16 16 15
26 27 27 27 25 23 20 16 14 10 7 6 6 7 7 4 5 6 11 8 5 3 1 3 1 1 8 3 7 13 14 15 17 12 7 12 17 17 12 14 15 17 16 16 17
27 26 27 28 26 23 18 16 7 5 5 7 7 7 5 7 9 12 12 12 11 6 4 3 4 3 7 11 11 12 14 20 16 14 11 16 14 13 12 14 15 17 18 18 18
28 28 27 28 27 22 18 6 3 8 6 6 4 7 8 4 4 6 10 8 10 10 10 11 8 9 11 13 15 15 18 10 18 14 15 17 20 9 6 14 16 17 19 18 19
29 29 29 29 28 20 11 6 5 8 7 12 1 8 3 1 3 9 11 12 9 10 13 9 12 13 17 18 18 10 14 17 14 5 14 19 18 17 17 14 15 18 18 19 20
29 30 31 28 27 20 8 6 6 8 11 10 12 13 14 8 6 9 11 15 12 15 10 8 14 12 3 6 12 14 15 16 9 9 11 14 18 16 16 14 17 18 18 20 20
31 30 31 28 23 7 7 9 8 4 9 1 3 3 1 11 12 10 15 18 13 15 12 15 4 4 11 12 13 14 16 14 12 10 14 12 19 19 17 16 15 17 20 21 22
31 32 30 32 5 5 3 14 10 6 7 8 6 5 4 3 8 12 12 12 9 14 11 10 5 9 11 12 14 15 14 13 13 10 13 14 9 14 15 19 19 19 19 20 22
31 32 27 15 7 4 10 12 5 5 7 5 5 3 1 7 3 10 8 10 15 11 7 3 8 13 15 13 10 10 3 13 14 13 14 13 10 13 12 15 16 16 18 19 19
33 32 26 2 4 9 14 9 5 8 6 4 1 2 2 7 1 4 10 9 7 12 13 16 2 7 9 3 6 2 8 8 9 12 14 18 14 11 13 16 12 6 5 7 9
34 29 13 8 9 19 13 6 7 7 4 4 4 6 7 2 4 3 9 17 13 13 17 18 19 14 10 13 7 12 12 7 10 12 14 3 11 15 4 3 4 7 5 5 8
35 23 2 3 14 13 10 7 8 3 1 2 4 12 8 4 4 3 7 11 15 17 13 11 14 16 13 19 12 17 15 7 11 12 11 8 10 8 4 6 5 5 7 7 9
29 4 3 11 16 8 9 8 6 4 6 6 10 9 8 5 6 5 6 6 4 5 13 11 18 8 6 10 13 11 14 14 17 13 10 8 10 7 10 10 8 8 5 5 4
9 5 7 20 13 7 7 6 3 8 11 8 9 5 8 5 5 3 6 4 2 1 4 2 9 10 8 9 9 12 6 9 9 14 19 14 15 7 6 10 9 7 4 1 1
6 5 12 23 8 6 6 6 4 7 10 6 9 12 10 9 8 9 7 9 4 3 5 3 7 11 9 15 18 10 14 11 8 14 13 14 11 8 7 8 9 8 4 4 5
7 3 13 15 3 3 5 7 5 6 5 5 8 9 11 8 11 10 12 2 4 3 4 5 7 12 19 6 1 9 13 20 12 18 13 16 18 5 5 5 8 7 5 7 7
7 5 9 11 6 7 8 9 6 7 7 6 5 2 1 7 6 8 10 8 9 6 6 7 8 10 17 17 16 12 13 10 12 10 19 17 18 12 6 8 7 10 8 10 11
5 5 5 5 7 8 9 5 7 6 9 8 11 10 10 13 11 8 9 5 1 6 11 9 12 16 16 16 8 10 8 11 7 12 20 19 27 22 15 12 10 8 9 12 13
6 6 5 7 6 12 9 9 12 8 6 9 3 3 6 7 12 14 15 14 13 12 10 8 17 18 20 19 20 19 20 20 20 21 19 21 24 22 15 11 9 10 12 13 14
6 6 6 4 7 9 3 9 10 7 12 14 16 12 12 14 14 19 20 18 17 13 14 14 21 20 28 25 23 26 25 26 26 24 23 27 25 29 20 17 18 17 16 18 16
2 2 5 3 7 8 8 10 14 15 6 11 15 17 17 16 15 14 15 14 15 15 16 15 11 14 26 19 18 17 33 25 24 28 23 27 28 25 25 20 19 18 16 19 17
Wind_Direction
354 351 348 344 341 337 333 329 325 320 313 307 304 302 306 308 285 213 235 113 150 143 196 185 206 201 211 220 230 245 240 236 229 229 171 163 155 160 67 145 133 113 95 111 141
351 349 346 343 339 334 330 326 321 316 310 307 306 302 304 306 270 254 139 131 137 158 199 198 194 192 206 215 207 229 233 240 276 235 207 178 180 154 165 150 140 131 119 131 155
349 346 344 340 336 331 326 323 317 312 307 304 304 303 298 291 267 222 120 151 160 193 233 232 234 207 220 211 208 214 250 245 221 229 247 177 186 167 178 185 167 163 151 155 164
345 343 340 336 333 329 324 320 314 309 303 302 302 303 303 241 259 91 136 152 168 215 198 194 206 206 216 206 201 244 237 267 259 178 212 181 158 186 183 112 160 155 154 156 164
341 339 336 332 332 327 321 318 312 305 298 292 291 292 265 221 250 112 134 150 190 200 205 203 209 212 217 215 201 229 213 227 219 196 211 177 186 175 190 152 150 148 160 164 164
338 335 333 330 328 326 320 315 306 298 291 282 278 286 241 246 93 148 168 172 215 211 180 213 231 222 236 221 220 208 226 202 206 183 184 203 174 211 144 162 152 161 172 174 171
338 335 332 330 327 324 321 314 304 291 281 277 266 254 251 257 109 164 184 201 175 213 197 106 354 212 184 189 204 212 218 201 199 188 183 233 193 213 134 177 168 180 182 181 181
339 336 333 330 328 326 321 316 304 276 255 248 251 245 262 99 188 212 193 191 198 209 272 121 307 165 269 87 186 214 233 212 186 193 162 221 218 211 179 192 189 193 190 190 191
339 337 335 331 330 328 322 317 304 169 189 193 225 246 247 136 211 210 201 206 180 183 151 156 243 249 196 209 201 208 219 224 174 203 175 215 230 225 193 207 213 200 200 199 197
340 337 337 334 331 330 322 287 76 161 191 209 265 244 214 175 155 193 199 221 186 174 176 208 211 219 221 218 220 209 227 210 236 179 225 213 238 205 220 222 223 215 207 208 207
341 339 338 334 332 330 314 213 232 179 218 271 308 281 151 308 213 202 182 191 195 214 223 196 228 217 217 221 244 295 220 223 215 134 223 229 240 235 228 217 232 229 218 210 212
341 339 336 334 330 316 285 52 39 332 295 263 258 264 269 266 243 199 193 198 203 221 204 213 236 248 210 217 220 230 228 227 209 201 231 234 237 236 232 231 227 226 216 212 215
339 338 336 331 325 306 46 39 322 275 259 200 214 252 6 199 218 194 200 202 209 219 212 244 53 277 198 198 216 222 229 221 236 189 228 260 253 240 228 224 222 219 217 215 218
339 336 337 325 298 353 97 349 332 213 269 134 163 120 185 233 217 220 211 203 211 226 212 246 209 192 202 229 219 236 209 232 222 224 238 196 268 208 213 220 223 222 220 223 219
339 335 332 333 323 359 331 325 324 216 278 70 104 77 186 237 26 180 187 208 227 199 213 211 195 209 220 223 201 258 182 230 228 236 259 205 253 260 202 214 223 220 231 231 230
339 335 328 222 240 353 325 312 214 232 237 122 65 332 295 191 193 118 196 230 260 241 224 263 98 241 237 135 236 129 191 204 227 241 235 238 225 249 213 206 233 217 202 232 246
338 332 327 306 343 321 315 237 241 244 83 62 342 337 318 294 194 257 192 202 214 216 229 229 224 224 238 234 182 207 196 214 213 206 238 163 233 238 51 159 200 188 243 250 253
333 321 161 345 335 327 287 241 246 87 278 26 305 309 282 326 157 239 226 225 219 254 272 230 215 206 201 227 219 203 214 207 226 233 236 151 232 239 228 219 216 235 277 281 259
319 337 308 353 334 311 276 250 338 5 337 311 293 258 241 231 294 275 236 285 52 275 237 234 240 153 206 220 237 199 230 261 272 278 279 220 206 207 199 209 228 251 250 269 271
325 308 25 343 328 268 258 263 342 11 332 302 285 243 250 206 269 254 216 76 199 332 297 242 257 206 185 223 223 261 245 201 224 239 241 239 244 238 171 209 198 200 198 236 245
284 286 13 344 283 235 273 41 345 349 346 315 311 289 273 289 265 250 253 104 342 300 285 304 231 226 210 216 234 193 218 230 265 238 255 255 248 186 218 241 183 191 174 173 186
306 330 6 331 33 20 22 339 317 330 342 302 290 289 287 305 269 253 256 6 355 316 262 55 291 246 240 186 247 285 262 223 219 236 232 263 255 206 186 221 191 196 205 193 195
339 335 24 341 35 10 350 296 298 327 334 321 290 298 294 273 277 251 269 100 14 6 33 2 234 255 241 241 246 241 234 246 275 249 251 242 249 246 220 237 242 257 203 203 204
313 343 22 53 53 340 342 310 321 331 301 329 304 294 321 270 250 264 240 158 351 320 348 299 257 246 248 259 334 243 232 225 246 244 236 239 255 249 222 205 235 235 237 218 210
352 58 0 349 13 338 326 318 322 336 352 332 261 98 347 305 310 280 275 277 289 300 288 266 264 268 265 267 276 268 266 260 249 248 253 254 260 259 269 304 320 307 268 259 234
358 349 346 302 317 317 324 344 322 331 333 310 293 308 320 292 291 292 296 287 283 291 274 267 269 269 266 261 257 259 260 256 250 254 258 260 262 262 274 281 279 273 270 267 261
34 27 313 340 316 310 350 321 306 308 300 299 295 298 292 293 305 303 297 282 265 273 281 275 285 272 261 261 255 250 242 252 260 259 253 256 259 274 267 265 266 272 264 269 266